Stations météo

réclame
Mon MeteoGroup
Quimper, France (7201): Température de l'air & dewpoint: 19.02.2018 06:00:00 - 25.02.2018 06:00:00 (CET)Quimper, France (7201): Température de l'air 5cm: 19.02.2018 06:00:00 - 25.02.2018 06:00:00 (CET)Quimper, France (7201): Température de l'air -20cm: 19.02.2018 06:00:00 - 25.02.2018 06:00:00 (CET)Quimper, France (7201): Vitesse du vent & gusts: 19.02.2018 06:00:00 - 25.02.2018 06:00:00 (CET)Quimper, France (7201): Direction du vent: 19.02.2018 06:00:00 - 25.02.2018 06:00:00 (CET)Quimper, France (7201): reduced air pressure: 19.02.2018 06:00:00 - 25.02.2018 06:00:00 (CET)Quimper, France (7201): visibility: 19.02.2018 06:00:00 - 25.02.2018 06:00:00 (CET)Quimper, France (7201): Ensoleillement: 19.02.2018 06:00:00 - 25.02.2018 06:00:00 (CET)Quimper, France (7201): Quantités de précipitations: 19.02.2018 06:00:00 - 25.02.2018 06:00:00 (CET)
Date & Time tt [°C] td [°C] tt 5cm [°C] tt -20cm [°C] ff [km/h] ff [knt] fx [km/h] fx [knt] dd ppp [hPa] vv [km] sd [min] rr [mm]
25.02.2018 06:00:00 -0,7 -5,3 -1,8 5,5 10 5 19 10 NE 1018,8 11 0 0,0
25.02.2018 05:00:00 -0,6 -4,7 -1,9 5,6 11 6 21 12 NE 1018,2 9 0 0,0
25.02.2018 04:00:00 -0,2 -3,9 -1,2 5,6 12 7 22 12 NE 1017,8 8 0 0,0
25.02.2018 03:00:00 -0,1 -3,7 -0,9 5,7 13 7 22 12 ENE 1017,7 7 0 0,0
25.02.2018 02:00:00 -0,1 -3,5 -0,9 5,8 13 7 20 11 E 1017,5 6 0 0,0
25.02.2018 01:00:00 -0,1 -3,3 -0,7 5,8 12 6 21 11 ENE 1017,6 6 0 0,0
25.02.2018 00:00:00 0,7 -3,0 -0,2 5,8 14 7 23 13 E 1017,4 7 0 0,0
24.02.2018 23:00:00 0,8 -3,1 0,0 5,8 12 6 17 9 ENE 1017,2 7 0 0,0
24.02.2018 22:00:00 1,2 -3,1 0,4 5,8 11 6 19 11 NE 1016,9 7 0 0,0
24.02.2018 21:00:00 1,6 -2,9 0,7 5,7 14 7 21 11 ENE 1016,3 8 0 0,0
24.02.2018 20:00:00 2,7 -2,2 1,7 5,7 12 6 24 13 ENE 1016,0 8 0 0,0
24.02.2018 19:00:00 4,3 -2,3 3,5 5,6 16 9 26 14 ENE 1015,0 9 29 0,0
24.02.2018 18:00:00 5,8 -2,3 6,6 5,5 15 8 24 13 ENE 1014,4 10 60 0,0
24.02.2018 17:00:00 6,5 -1,9 8,7 5,4 14 8 24 13 NE 1014,2 10 60 0,0
24.02.2018 16:00:00 6,5 -2,7 8,4 5,3 12 6 23 12 NE 1014,2 11 60 0,0
24.02.2018 15:00:00 5,9 -2,5 7,8 5,2 13 7 21 12 NE 1014,3 11 60 0,0
24.02.2018 14:00:00 5,4 -2,9 6,3 5,2 13 7 27 15 E 1014,7 11 60 0,0
24.02.2018 13:00:00 4,5 -3,8 5,6 5,3 18 10 34 18 E 1015,0 9 60 0,0
24.02.2018 12:00:00 3,4 -3,6 4,3 5,4 16 9 29 16 E 1015,4 12 60 0,0
24.02.2018 11:00:00 1,9 -4,0 2,1 5,5 15 8 26 14 ENE 1015,3 11 60 0,0
24.02.2018 10:00:00 0,3 -4,7 -0,1 5,6 14 8 23 13 ENE 1015,3 12 60 0,0
24.02.2018 09:00:00 -1,2 -5,1 -2,7 5,6 14 8 24 13 ENE 1015,0 11 29 0,0
24.02.2018 08:00:00 -2,0 -5,5 -2,7 5,7 11 6 20 11 ENE 1014,5 12 0 0,0
24.02.2018 07:00:00 -1,8 -5,3 -2,8 5,8 12 7 19 10 ENE 1014,3 11 0 0,0
24.02.2018 06:00:00 -1,8 -5,1 -2,5 5,9 9 5 17 9 E 1014,2 11 0 0,0
24.02.2018 05:00:00 -1,8 -4,8 -2,8 6,0 12 6 17 9 ENE 1014,0 10 0 0,0
24.02.2018 04:00:00 -1,9 -4,9 -3,2 6,1 8 4 14 8 E 1013,9 10 0 0,0
24.02.2018 03:00:00 -1,8 -5,1 -3,0 6,2 7 4 22 12 E 1014,2 10 0 0,0
24.02.2018 02:00:00 -1,2 -4,7 -3,2 6,2 11 6 16 9 E 1014,3 11 0 0,0
24.02.2018 01:00:00 -1,4 -4,9 -2,6 6,3 9 5 18 10 E 1014,4 10 0 0,0
24.02.2018 00:00:00 -1,2 -4,7 -2,0 6,4 11 6 19 10 E 1014,2 10 0 0,0
23.02.2018 23:00:00 -0,6 -4,5 -1,9 6,4 12 6 21 11 E 1014,1 10 0 0,0
23.02.2018 22:00:00 -0,2 -4,5 -1,8 6,4 8 4 16 8 ENE 1014,1 11 0 0,0
23.02.2018 21:00:00 0,7 -4,2 -0,5 6,4 12 7 22 12 ENE 1014,1 12 0 0,0
23.02.2018 20:00:00 1,9 -5,1 0,5 6,3 12 7 19 11 ENE 1013,5 17 0 0,0
23.02.2018 19:00:00 3,4 -5,5 1,9 6,2 11 6 23 13 ENE 1013,4 22 27 0,0
23.02.2018 18:00:00 5,1 -5,0 6,2 6,1 14 7 21 12 ENE 1013,2 20 60 0,0
23.02.2018 17:00:00 6,5 -4,3 7,9 6,0 9 5 21 12 E 1013,1 22 60 0,0
23.02.2018 16:00:00 6,6 -5,4 8,6 6,0 12 6 23 12 E 1013,5 20 60 0,0
23.02.2018 15:00:00 6,0 -5,7 8,0 6,0 10 5 27 14 E 1014,1 24 60 0,0
23.02.2018 14:00:00 5,6 -5,4 7,5 6,0 15 8 29 15 E 1014,7 16 60 0,0
23.02.2018 13:00:00 4,7 -4,9 6,1 6,1 16 8 27 15 E 1015,5 13 60 0,0
23.02.2018 12:00:00 3,6 -5,1 4,9 6,1 20 11 34 19 E 1016,3 9 60 0,0
23.02.2018 11:00:00 2,5 -3,6 2,8 6,3 14 7 22 12 ENE 1016,6 13 60 0,0
23.02.2018 10:00:00 0,4 -3,9 0,4 6,4 10 6 19 11 ENE 1017,0 9 60 0,0
23.02.2018 09:00:00 -1,5 -4,7 -4,5 6,5 7 4 10 6 ENE 1017,0 8 28 0,0
23.02.2018 08:00:00 -2,6 -5,4 -4,6 6,6 7 4 13 7 NE 1017,0 7 0 0,0
23.02.2018 07:00:00 -2,1 -4,9 -4,5 6,7 7 4 15 8 NE 1016,9 7 0 0,0
23.02.2018 06:00:00 -2,3 -5,0 -4,6 6,8 8 5 14 8 NE 1016,9 7 0 0,0
23.02.2018 05:00:00 -1,6 -4,1 -4,2 6,9 10 5 16 8 NE 1017,1 6 0 0,0
23.02.2018 04:00:00 -1,5 -4,0 -3,9 6,9 8 5 13 7 NE 1017,6 6 0 0,0
23.02.2018 03:00:00 -1,0 -3,4 -2,7 7,0 4 2 10 6 ENE 1017,8 6 0 0,0
23.02.2018 02:00:00 -0,6 -3,0 -1,7 7,1 4 2 18 10 E 1018,0 6 0 0,0
23.02.2018 01:00:00 0,3 -1,9 -0,5 7,2 11 6 26 14 E 1018,1 6 0 0,0
23.02.2018 00:00:00 0,8 -1,6 0,1 7,2 13 7 25 13 ENE 1018,1 7 0 0,0
22.02.2018 23:00:00 1,2 -1,7 0,4 7,2 15 8 26 14 NE 1018,2 8 0 0,0
22.02.2018 22:00:00 1,8 -1,8 1,0 7,3 16 8 22 12 NE 1018,3 9 0 0,0
22.02.2018 21:00:00 2,2 -2,1 0,9 7,2 12 6 18 10 NE 1018,3 10 0 0,0
22.02.2018 20:00:00 3,0 -2,7 1,4 7,2 9 5 22 12 NE 1018,3 11 0 0,0
22.02.2018 19:00:00 4,7 -2,4 3,5 7,2 14 8 26 14 ENE 1017,9 14 26 0,0
22.02.2018 18:00:00 6,0 -2,4 6,9 7,1 16 9 31 17 ENE 1017,6 15 60 0,0
22.02.2018 17:00:00 7,1 -2,4 9,1 7,0 15 8 29 16 ENE 1017,6 12 60 0,0
22.02.2018 16:00:00 7,7 -1,8 9,7 6,9 18 10 31 17 NE 1017,8 10 60 0,0
22.02.2018 15:00:00 7,7 -1,3 9,9 7,0 17 9 32 17 ENE 1018,4 15 60 0,0
22.02.2018 14:00:00 7,5 -2,3 9,8 7,0 15 8 30 16 E 1019,1 15 60 0,0
22.02.2018 13:00:00 6,8 -2,4 8,2 7,0 14 8 31 17 ENE 1019,8 15 60 0,0
22.02.2018 12:00:00 6,0 -2,4 6,7 7,1 16 9 29 16 E 1020,2 17 60 0,0
22.02.2018 11:00:00 4,1 -2,1 5,0 7,2 17 9 29 15 ENE 1020,5 9 60 0,2
22.02.2018 10:00:00 2,6 -1,8 1,9 7,3 13 7 19 10 ENE 1020,8 6 60 0,0
22.02.2018 09:00:00 0,2 -1,7 -3,1 7,4 10 5 14 8 NNE 1020,8 7 26 0,0
22.02.2018 08:00:00 -0,3 -2,4 -2,3 7,5 9 5 17 9 NE 1020,7 7 0 0,0
22.02.2018 07:00:00 -0,2 -2,3 -1,9 7,6 11 6 17 9 NNE 1020,7 7 0 0,0
22.02.2018 06:00:00 0,2 -1,9 -1,6 7,7 8 5 16 9 NNE 1020,9 7 0 0,0
22.02.2018 05:00:00 0,9 -1,2 -1,0 7,8 13 7 22 12 ENE 1020,7 8 0 0,0
22.02.2018 04:00:00 0,5 -1,7 -1,1 7,9 10 5 18 10 ENE 1021,1 8 0 0,0
22.02.2018 03:00:00 1,3 -1,3 0,5 8,0 12 7 24 13 E 1021,5 9 0 0,0
22.02.2018 02:00:00 2,3 -0,6 0,3 8,1 17 9 30 16 ENE 1021,7 10 0 0,0
22.02.2018 01:00:00 2,3 -0,6 1,5 8,1 13 7 23 13 NE 1022,1 9 0 0,0
22.02.2018 00:00:00 2,9 0,0 2,1 8,2 14 8 23 13 NE 1022,3 7 0 0,0
21.02.2018 23:00:00 3,1 0,0 1,0 8,2 14 8 24 13 NE 1022,7 7 0 0,0
21.02.2018 22:00:00 2,5 -1,1 1,1 8,3 6 3 20 11 NNE 1023,2 8 0 0,0
21.02.2018 21:00:00 3,3 -1,3 1,8 8,3 11 6 27 14 NNE 1023,2 9 0 0,0
21.02.2018 20:00:00 4,5 -1,5 3,7 8,3 17 9 28 15 NE 1023,1 11 0 0,0
21.02.2018 19:00:00 5,7 -1,9 4,7 8,2 13 7 31 17 NE 1022,8 17 24 0,0
21.02.2018 18:00:00 7,1 -3,5 7,9 8,2 20 11 33 18 NE 1022,4 20 60 0,0
21.02.2018 17:00:00 8,1 -1,7 9,9 8,1 18 10 31 17 NE 1022,4 17 60 0,0
21.02.2018 16:00:00 8,7 -1,4 9,2 8,1 18 10 37 20 NE 1022,4 11 54 0,0
21.02.2018 15:00:00 9,2 0,9 9,4 8,1 19 11 35 19 ENE 1022,9 18 50 0,0
21.02.2018 14:00:00 7,8 0,5 8,3 8,1 19 10 34 18 ENE 1023,5 19 11 0,0
21.02.2018 13:00:00 9,2 2,7 7,7 8,1 20 11 40 22 NE 1023,9 14 37 0,0
21.02.2018 12:00:00 7,2 1,1 7,6 8,2 18 10 36 19 ENE 1024,4 20 33 0,0
21.02.2018 11:00:00 7,1 1,6 7,0 8,2 20 11 40 22 ENE 1024,6 19 35 0,0
21.02.2018 10:00:00 7,2 3,8 6,1 8,2 19 10 29 16 NE 1024,4 20 11 0,0
21.02.2018 09:00:00 6,3 3,8 5,9 8,4 10 6 20 11 NE 1024,1 37 2 0,0
21.02.2018 08:00:00 6,6 3,9 6,1 8,4 16 8 29 16 NNE 1023,8 35 0 0,0
21.02.2018 07:00:00 6,1 3,4 4,7 8,5 10 5 18 10 N 1023,7 44 0 0,0
21.02.2018 06:00:00 5,8 3,3 5,0 8,5 11 6 21 12 NW 1023,8 43 0 0,0
21.02.2018 05:00:00 5,3 2,8 4,3 8,6 15 8 24 13 NNW 1023,9 34 0 0,0
21.02.2018 04:00:00 5,0 2,7 3,6 8,7 11 6 16 9 N 1024,3 33 0 0,0
21.02.2018 03:00:00 5,4 2,9 4,4 8,7 9 5 25 14 N 1024,7 35 0 0,0
21.02.2018 02:00:00 5,3 3,1 4,4 8,8 12 7 24 13 N 1024,7 19 0 0,0
21.02.2018 01:00:00 5,7 3,2 5,0 8,8 13 7 27 15 N 1025,0 20 0 0,0
21.02.2018 00:00:00 6,1 3,4 5,2 8,9 17 9 28 15 N 1025,1 20 0 0,0
20.02.2018 23:00:00 5,9 3,2 5,0 8,9 14 8 25 13 N 1025,4 20 0 0,0
20.02.2018 22:00:00 6,2 3,5 5,3 9,0 15 8 31 17 N 1025,1 20 0 0,0
20.02.2018 21:00:00 6,5 3,6 5,7 9,0 18 10 29 16 N 1025,0 19 0 0,0
20.02.2018 20:00:00 6,9 3,5 6,0 9,0 16 9 28 15 N 1024,8 33 0 0,0
20.02.2018 19:00:00 7,7 3,0 6,8 8,9 16 9 29 15 N 1024,2 41 18 0,0
20.02.2018 18:00:00 8,5 3,3 8,8 8,9 18 10 41 22 N 1024,2 47 32 0,0
20.02.2018 17:00:00 9,9 3,6 10,3 8,8 26 14 47 25 N 1023,7 20 51 0,0
20.02.2018 16:00:00 10,5 4,8 10,8 8,8 24 13 44 24 N 1023,9 60 30 0,0
20.02.2018 15:00:00 10,0 5,0 10,7 8,8 25 14 43 23 NNE 1024,1 19 5 0,0
20.02.2018 14:00:00 9,6 5,2 10,8 8,7 21 11 48 26 N 1024,3 20 28 0,0
20.02.2018 13:00:00 9,9 5,9 10,4 8,7 26 14 40 21 N 1024,4 19 12 0,0
20.02.2018 12:00:00 9,7 7,5 8,5 8,7 19 10 34 18 N 1024,4 19 15 0,0
20.02.2018 11:00:00 9,0 7,8 8,7 8,8 23 12 36 19 N 1024,2 4,3 0 0,0
20.02.2018 10:00:00 9,8 8,6 9,3 8,8 16 9 27 15 NNW 1023,5 15 0 0,0
20.02.2018 09:00:00 9,2 8,1 8,1 8,8 11 6 21 11 NNW 1023,2 18 0 0,0
20.02.2018 08:00:00 8,2 7,0 7,4 8,9 10 6 24 13 NNW 1022,7 30 0 0,0
20.02.2018 07:00:00 8,4 6,7 7,9 8,9 19 10 35 19 NNW 1022,1 43 0 0,0
20.02.2018 06:00:00 8,5 7,0 7,4 9,0 21 11 33 18 N 1022,3 43 0 0,0
20.02.2018 05:00:00 8,4 6,9 7,7 9,0 18 10 32 17 N 1022,0 36 0 0,0
20.02.2018 04:00:00 8,4 7,0 7,9 9,0 19 10 35 19 NNW 1021,9 18 0 0,0
20.02.2018 03:00:00 8,8 6,9 8,2 9,0 18 10 35 19 NNW 1022,2 36 0 0,0
20.02.2018 02:00:00 8,8 7,6 8,1 9,1 19 11 37 20 NNW 1022,2 20 0 0,0
20.02.2018 01:00:00 9,3 7,9 8,7 9,0 19 11 32 17 NNW 1022,3 18 0 0,0
20.02.2018 00:00:00 9,2 8,0 9,0 9,1 20 11 31 17 NNW 1022,0 16 0 0,0
19.02.2018 23:00:00 9,3 8,1 9,1 9,0 18 10 30 16 NNW 1022,0 15 0 0,0
19.02.2018 22:00:00 9,3 7,9 8,8 9,1 19 10 26 14 NNW 1021,7 18 0 0,0
19.02.2018 21:00:00 9,3 7,9 8,8 9,0 14 8 27 14 NNW 1021,8 16 0 0,0
19.02.2018 20:00:00 9,6 8,2 9,2 9,0 20 11 33 18 NNW 1021,8 18 0 0,0
19.02.2018 19:00:00 9,7 8,1 9,4 8,9 20 11 31 17 NNW 1021,6 19 0 0,0
19.02.2018 18:00:00 9,8 8,6 9,9 8,9 21 12 36 19 NNW 1021,4 18 0 0,0
19.02.2018 17:00:00 10,0 8,8 10,2 8,8 26 14 37 20 NNW 1021,2 13 0 0,0
19.02.2018 16:00:00 10,6 9,4 11,1 8,8 23 12 38 20 NNW 1020,9 18 0 0,0
19.02.2018 15:00:00 10,8 9,6 11,6 8,7 24 13 36 19 NNW 1021,0 16 0 0,0
19.02.2018 14:00:00 11,1 10,5 10,7 8,7 21 11 35 19 NNW 1021,0 19 0 0,0
19.02.2018 13:00:00 10,5 10,2 10,5 8,7 19 11 33 18 NNW 1021,3 14 0 0,0
19.02.2018 12:00:00 10,2 10,0 10,1 8,7 17 9 29 16 NNW 1021,2 11 0 0,0
19.02.2018 11:00:00 10,0 9,8 10,0 8,7 9 5 27 15 NNW 1021,0 6 0 0,0
19.02.2018 10:00:00 9,9 9,7 9,7 8,6 17 9 30 16 NNW 1020,9 1,7 0 0,0
19.02.2018 09:00:00 9,8 9,7 9,7 8,7 20 11 29 16 NNW 1020,8 0,8 0 0,0
19.02.2018 08:00:00 9,9 9,7 9,7 8,6 16 9 26 14 NNW 1020,5 1,1 0 0,2
19.02.2018 07:00:00 9,9 9,7 9,7 8,6 12 7 22 12 NW 1020,2 3,7 0 0,2
19.02.2018 06:00:00 9,9 9,7 9,6 8,6 11 6 18 10 NW 1020,1 0,9 0 0,0

tt = Température de l'air
td = dewpoint
tt 5cm = Température de l'air 5cm
tt -20cm = Température de l'air -20cm
ff = Vitesse du vent
fx = gusts
dd = Direction du vent
ppp = reduced air pressure
vv = visibility
sd = Ensoleillement
rr = Quantités de précipitations

stations d'obs. à proximité